Location: Unspecified
(0.0000°N, 0.0000°E)
Time: 01:26:52
(UTC+00:00)

Courier 1B Rocket - Pass Details

Date: 26 November 2019
Orbit: 920 x 1202 km, 28.2° (Epoch: 10 December)

Event Time Altitude Azimuth Distance (km) Brightness Sun altitude
Rises 07:13:43 0° 231° (SW) 3,663 7.7 20.2°
Reaches altitude 10° 07:16:30 10° 227° (SW) 2,681 7.1 20.8°
Maximum altitude 07:22:44 53° 150° (SSE) 1,122 6.3 22.2°
Drops below altitude 10° 07:28:47 10° 74° (ENE) 2,601 8.2 23.6°
Sets 07:31:26 0° 70° (ENE) 3,545 8.6 24.2°
